GW7078 Weather Reports


time (UTC)temp
F
wind
direction
speed
knots
gust
knots
rain 1hr
in
rain 24hr
in
rain mn
in
humidity
%
barometer
mb
20260508214507 64 187 0.9 2.6 0.00 0.00 0.00 39 1006.7
20260508214007 65 165 0.0 2.6 0.00 0.00 0.00 36 1006.8
20260508213507 65 165 0.9 2.6 0.00 0.00 0.00 35 1006.7
20260508213016 66 140 0.9 6.1 0.00 0.00 0.00 35 1006.9
20260508212505 66 190 1.7 6.1 0.00 0.00 0.00 34 1006.8
20260508212007 66 130 1.7 4.3 0.00 0.00 0.00 36 1006.9
20260508211519 66 18 0.9 2.6 0.00 0.00 0.00 36 1006.8
20260508211008 65 317 0.9 5.2 0.00 0.00 0.00 39 1006.9
20260508210515 65 303 1.7 6.1 0.00 0.00 0.00 38 1007.0
20260508210004 65 36 1.7 6.1 0.00 0.00 0.00 35 1007.0
20260508205501 64 146 0.9 1.7 0.00 0.00 0.00 41 1007.1
20260508205002 63 26 0.0 5.2 0.00 0.00 0.00 39 1007.2
20260508204515 63 132 0.0 5.2 0.00 0.00 0.00 37 1007.3
20260508204002 64 157 1.7 4.3 0.00 0.00 0.00 39 1007.3
20260508203505 65 111 0.9 2.6 0.00 0.00 0.00 36 1007.3
20260508203013 65 110 0.9 2.6 0.00 0.00 0.00 34 1007.3
20260508202507 65 36 0.0 6.1 0.00 0.00 0.00 34 1007.4
20260508202008 65 336 0.9 6.1 0.00 0.00 0.00 34 1007.6
20260508201517 66 269 0.9 3.5 0.00 0.00 0.00 32 1007.8
20260508201014 66 314 0.9 3.5 0.00 0.00 0.00 32 1007.8
20260508200507 65 300 0.9 3.5 0.00 0.00 0.00 35 1007.8
20260508200022 64 210 0.9 3.5 0.00 0.00 0.00 36 1008.0
20260508195511 64 186 0.9 5.2 0.00 0.00 0.00 36 1008.0
20260508195002 65 182 1.7 5.2 0.00 0.00 0.00 37 1008.1
20260508194505 65 125 1.7 4.3 0.00 0.00 0.00 35 1008.1
20260508194002 65 205 0.9 3.5 0.00 0.00 0.00 34 1008.2
20260508193505 64 321 0.9 3.5 0.00 0.00 0.00 35 1008.2
20260508193010 64 163 2.6 3.5 0.00 0.00 0.00 36 1008.3
20260508192503 63 198 0.9 5.2 0.00 0.00 0.00 37 1008.5
20260508192008 63 153 1.7 7.8 0.00 0.00 0.00 37 1008.6
20260508191521 63 148 2.6 7.8 0.00 0.00 0.00 37 1008.6
20260508191008 63 154 0.9 6.1 0.00 0.00 0.00 38 1008.8
20260508190509 63 44 0.9 7.0 0.00 0.00 0.00 37 1008.7
20260508190032 63 171 2.6 7.0 0.00 0.00 0.00 35 1008.8
20260508185510 62 117 0.0 7.0 0.00 0.00 0.00 37 1008.8
20260508185009 63 320 0.9 7.0 0.00 0.00 0.00 35 1009.0
20260508184504 64 155 1.7 3.5 0.00 0.00 0.00 32 1009.0
20260508184004 64 309 0.9 5.2 0.00 0.00 0.00 33 1009.0
20260508183503 64 206 0.9 5.2 0.00 0.00 0.00 34 1009.0
20260508183006 64 11 1.7 4.3 0.00 0.00 0.00 32 1009.0
20260508182506 64 5 0.9 4.3 0.00 0.00 0.00 32 1008.9
20260508182009 64 230 1.7 7.0 0.00 0.00 0.00 31 1009.0
20260508181520 64 239 1.7 7.0 0.00 0.00 0.00 31 1009.0
20260508181006 63 5 0.9 4.3 0.00 0.00 0.00 32 1009.2
20260508180507 63 140 1.7 4.3 0.00 0.00 0.00 34 1009.3
20260508180026 63 253 1.7 2.6 0.00 0.00 0.00 31 1009.4
20260508175508 63 198 0.9 3.5 0.00 0.00 0.00 37 1009.4
20260508175013 63 276 0.9 5.2 0.00 0.00 0.00 33 1009.5
20260508174534 63 22 1.7 5.2 0.00 0.00 0.00 31 1009.8
20260508174011 63 142 0.9 4.3 0.00 0.00 0.00 34 1009.9
20260508173502 62 105 0.9 2.6 0.00 0.00 0.00 33 1010.0
20260508173008 62 250 0.9 3.5 0.00 0.00 0.00 33 1010.1
20260508172505 61 214 0.9 3.5 0.00 0.00 0.00 36 1010.3
20260508172006 61 338 0.9 3.5 0.00 0.00 0.00 33 1010.3
20260508171516 61 255 0.9 5.2 0.00 0.00 0.00 34 1010.5
20260508171009 61 346 1.7 6.1 0.00 0.00 0.00 34 1010.5
20260508170505 61 347 1.7 6.1 0.00 0.00 0.00 35 1010.5
20260508170029 60 283 0.9 2.6 0.00 0.00 0.00 35 1010.6
20260508165508 60 342 0.9 4.3 0.00 0.00 0.00 37 1010.7
20260508165008 59 155 1.7 4.3 0.00 0.00 0.00 38 1010.8
20260508164533 60 157 0.9 4.3 0.00 0.00 0.00 37 1010.9
20260508164007 59 16 1.7 4.3 0.00 0.00 0.00 38 1011.0
20260508163508 59 331 0.9 4.3 0.00 0.00 0.00 40 1011.0
20260508163029 59 13 0.9 4.3 0.00 0.00 0.00 40 1011.1
20260508162504 59 132 0.9 3.5 0.00 0.00 0.00 41 1011.3
20260508162004 59 82 1.7 2.6 0.00 0.00 0.00 39 1011.3
20260508161508 59 169 0.9 4.3 0.00 0.00 0.00 41 1011.4
20260508161006 58 144 1.7 4.3 0.00 0.00 0.00 42 1011.3
20260508160510 58 144 0.9 3.5 0.00 0.00 0.00 45 1011.4
20260508160011 58 102 1.7 3.5 0.00 0.00 0.00 43 1011.4
20260508155508 58 344 0.0 3.5 0.00 0.00 0.00 44 1011.4
20260508155009 57 215 0.9 3.5 0.00 0.00 0.00 43 1011.5
20260508154518 57 305 1.7 5.2 0.00 0.00 0.00 43 1011.5
20260508154008 57 98 0.9 5.2 0.00 0.00 0.00 45 1011.4
20260508153512 57 121 0.9 4.3 0.00 0.00 0.00 43 1011.5
20260508153033 57 162 2.6 4.3 0.00 0.00 0.00 43 1011.5
20260508152508 57 43 0.9 2.6 0.00 0.00 0.00 45 1011.6
20260508152018 56 262 0.0 2.6 0.00 0.00 0.00 44 1011.6
20260508151507 56 134 0.0 2.6 0.00 0.00 0.00 46 1011.6
20260508151006 56 61 0.9 2.6 0.00 0.00 0.00 47 1011.7
20260508150509 55 239 0.9 2.6 0.00 0.00 0.00 45 1011.7
20260508150015 55 76 0.9 2.6 0.00 0.00 0.00 48 1011.8
20260508145506 54 35 0.0 3.5 0.00 0.00 0.00 48 1011.8
20260508145011 55 54 1.7 4.3 0.00 0.00 0.00 48 1011.9
20260508144515 54 68 0.9 5.2 0.00 0.00 0.00 53 1011.9
20260508144007 54 80 0.9 5.2 0.00 0.00 0.00 51 1011.9
20260508143511 54 84 1.7 5.2 0.00 0.00 0.00 53 1012.0
20260508143021 54 53 0.9 3.5 0.00 0.00 0.00 51 1012.0
20260508142512 54 36 1.7 3.5 0.00 0.00 0.00 51 1012.1
20260508142011 54 22 0.9 2.6 0.00 0.00 0.00 53 1012.1
20260508141525 54 80 0.0 2.6 0.00 0.00 0.00 55 1012.1
20260508141015 54 97 1.7 2.6 0.00 0.00 0.00 55 1012.1
20260508140505 54 84 0.9 1.7 0.00 0.00 0.00 57 1012.2
20260508140008 53 142 0.0 1.7 0.00 0.00 0.00 57 1012.2
20260508135507 53 35 0.9 2.6 0.00 0.00 0.00 57 1012.3
20260508135008 53 53 0.0 2.6 0.00 0.00 0.00 60 1012.3
20260508134514 52 85 0.9 2.6 0.00 0.00 0.00 61 1012.3
20260508134007 52 323 0.9 2.6 0.00 0.00 0.00 62 1012.3
20260508133507 51 315 0.9 2.6 0.00 0.00 0.00 62 1012.3
20260508133021 51 24 1.7 1.7 0.00 0.00 0.00 62 1012.4
20260508132506 51 59 0.0 2.6 0.00 0.00 0.00 63 1012.4
20260508132017 51 48 0.0 2.6 0.00 0.00 0.00 65 1012.3
20260508131525 51 34 1.7 2.6 0.00 0.00 0.00 64 1012.3
20260508131007 50 138 0.0 1.7 0.00 0.00 0.00 66 1012.5
20260508130510 50 217 0.0 1.7 0.00 0.00 0.00 67 1012.5
20260508130029 49 351 0.9 1.7 0.00 0.00 0.00 67 1012.4
20260508125504 49 236 0.9 1.7 0.00 0.00 0.00 68 1012.4
20260508125006 48 223 0.0 1.7 0.00 0.00 0.00 69 1012.3
20260508124514 48 192 0.0 1.7 0.00 0.00 0.00 70 1012.2
20260508124006 48 245 0.9 1.7 0.00 0.00 0.00 70 1012.2
20260508123508 48 214 0.0 1.7 0.00 0.00 0.00 71 1012.2
20260508123020 47 199 0.0 1.7 0.00 0.00 0.00 71 1012.3
20260508122507 47 203 0.0 1.7 0.00 0.00 0.00 73 1012.3
20260508122011 47 153 0.0 1.7 0.00 0.00 0.00 74 1012.3
20260508121527 46 64 0.0 1.7 0.00 0.00 0.00 75 1012.2
20260508121008 46 42 0.0 1.7 0.00 0.00 0.00 75 1012.2
20260508120507 45 42 0.0 1.7 0.00 0.00 0.00 77 1012.2
20260508120025 45 42 0.0 1.7 0.00 0.00 0.00 80 1012.1
20260508115509 43 13 0.0 0.0 0.00 0.00 0.00 83 1012.0
20260508115010 42 13 0.0 0.0 0.00 0.00 0.00 87 1012.0
20260508114511 41 13 0.0 0.0 0.00 0.00 0.00 91 1011.9
20260508114003 40 13 0.0 0.0 0.00 0.00 0.00 91 1011.8
20260508113508 40 13 0.0 0.0 0.00 0.00 0.00 91 1011.7
20260508113014 39 13 0.0 0.0 0.00 0.00 0.00 91 1011.6
20260508112509 39 13 0.0 0.0 0.00 0.00 0.00 91 1011.6
20260508112011 39 13 0.0 0.0 0.00 0.00 0.00 91 1011.6
20260508111522 39 13 0.0 0.0 0.00 0.00 0.00 91 1011.6
20260508111007 39 13 0.0 0.0 0.00 0.00 0.00 91 1011.5
20260508110512 39 13 0.0 1.7 0.00 0.00 0.00 91 1011.5
20260508110025 39 13 0.0 1.7 0.00 0.00 0.00 91 1011.5
20260508105508 39 25 0.0 0.0 0.00 0.00 0.00 91 1011.5
20260508105015 39 25 0.0 0.0 0.00 0.00 0.00 90 1011.4
20260508104526 39 25 0.0 1.7 0.00 0.00 0.00 90 1011.4
20260508104008 39 25 0.0 1.7 0.00 0.00 0.00 90 1011.3
20260508103506 39 25 0.0 0.0 0.00 0.00 0.00 90 1011.2
20260508103013 39 25 0.0 0.0 0.00 0.00 0.00 90 1011.2
20260508102505 39 25 0.0 0.0 0.00 0.00 0.00 90 1011.2
20260508102010 39 25 0.0 0.0 0.00 0.00 0.00 90 1011.2
20260508101524 39 25 0.0 0.0 0.00 0.00 0.00 90 1011.3
20260508101010 39 25 0.0 0.0 0.00 0.00 0.00 90 1011.2
20260508100511 39 25 0.0 0.0 0.00 0.00 0.00 90 1011.2
20260508100024 39 25 0.0 0.9 0.00 0.00 0.00 89 1011.2
20260508095507 39 25 0.0 1.7 0.00 0.00 0.00 89 1011.2
20260508095006 39 25 0.0 1.7 0.00 0.00 0.00 89 1011.1
20260508094507 39 25 0.0 1.7 0.00 0.00 0.00 89 1011.2
20260508094005 39 25 0.0 1.7 0.00 0.00 0.00 89 1011.2
20260508093507 40 25 0.0 0.0 0.00 0.00 0.00 89 1011.3
20260508093012 40 25 0.0 0.0 0.00 0.00 0.00 89 1011.2
20260508092507 40 25 0.0 0.0 0.00 0.00 0.00 89 1011.3
20260508092006 40 25 0.0 0.0 0.00 0.00 0.00 89 1011.3
20260508091528 40 25 0.0 0.0 0.00 0.00 0.00 89 1011.3
20260508091009 40 25 0.0 0.0 0.00 0.00 0.00 88 1011.3
20260508090507 40 25 0.0 0.0 0.00 0.00 0.00 88 1011.3
20260508090022 40 25 0.0 0.0 0.00 0.00 0.00 88 1011.3
20260508085509 40 25 0.0 0.0 0.00 0.00 0.00 88 1011.3
20260508085015 40 25 0.0 0.0 0.00 0.00 0.00 88 1011.2
20260508084527 41 25 0.0 0.0 0.00 0.00 0.00 88 1011.2
20260508084005 41 25 0.0 0.0 0.00 0.00 0.00 88 1011.3
20260508083504 41 25 0.0 0.0 0.00 0.00 0.00 87 1011.4
20260508083018 41 25 0.0 0.0 0.00 0.00 0.00 87 1011.4
20260508082507 41 25 0.0 0.0 0.00 0.00 0.00 87 1011.4
20260508082007 41 25 0.0 0.0 0.00 0.00 0.00 86 1011.5
20260508081516 42 25 0.0 0.0 0.00 0.00 0.00 86 1011.4
20260508081005 42 25 0.0 0.0 0.00 0.00 0.00 86 1011.4
20260508080509 42 25 0.0 0.0 0.00 0.00 0.00 86 1011.4
20260508080018 42 25 0.0 1.7 0.00 0.00 0.00 86 1011.4
20260508075508 42 25 0.0 1.7 0.00 0.00 0.00 86 1011.4
20260508075016 42 360 0.0 1.7 0.00 0.00 0.00 85 1011.5
20260508074522 42 352 0.0 1.7 0.00 0.00 0.00 86 1011.4
20260508074009 42 341 0.0 0.0 0.00 0.00 0.00 86 1011.4
20260508073514 42 341 0.0 0.0 0.00 0.00 0.00 86 1011.5
20260508073009 42 341 0.0 0.0 0.00 0.00 0.00 86 1011.5
20260508072502 42 341 0.0 0.0 0.00 0.00 0.00 86 1011.7
20260508072006 42 341 0.0 0.0 0.00 0.00 0.00 86 1011.6
20260508071512 42 341 0.0 0.0 0.00 0.00 0.00 85 1011.5
20260508071005 42 341 0.0 0.0 0.00 0.00 0.00 86 1011.5
20260508070507 42 341 0.0 0.0 0.00 0.00 0.00 85 1011.5
20260508070019 42 341 0.0 0.0 0.00 0.00 0.00 85 1011.5
20260508065513 42 341 0.0 0.0 0.00 0.00 0.00 85 1011.5
20260508065006 42 341 0.0 0.0 0.00 0.00 0.00 85 1011.5
20260508064531 42 341 0.0 0.0 0.00 0.00 0.00 84 1011.6
20260508064008 42 341 0.0 0.0 0.00 0.00 0.00 84 1011.4
20260508063516 42 341 0.0 0.0 0.00 0.00 0.00 84 1011.5
20260508063031 42 341 0.0 0.0 0.00 0.00 0.00 84 1011.4
20260508062516 42 341 0.0 0.0 0.00 0.00 0.00 84 1011.5
20260508062012 42 341 0.0 1.7 0.00 0.00 0.00 83 1011.5
20260508061509 42 341 0.0 0.9 0.00 0.00 0.00 83 1011.6
20260508061004 42 341 0.0 0.0 0.00 0.00 0.00 83 1011.6
20260508060505 42 341 0.0 0.0 0.00 0.00 0.00 83 1011.7
20260508060014 42 341 0.0 0.0 0.00 0.00 0.00 82 1011.7
20260508055505 42 341 0.0 0.0 0.00 0.00 0.00 82 1011.6
20260508055005 42 341 0.0 0.0 0.00 0.00 0.00 82 1011.7
20260508054519 42 341 0.0 0.0 0.00 0.00 0.00 81 1011.7
20260508054006 42 341 0.0 0.0 0.00 0.00 0.00 81 1011.8
20260508053513 43 341 0.0 1.7 0.00 0.00 0.00 80 1011.9
20260508053031 43 341 0.0 1.7 0.00 0.00 0.00 79 1011.7
20260508052510 43 341 0.0 1.7 0.00 0.00 0.00 78 1011.8
20260508052020 43 341 0.0 0.0 0.00 0.00 0.00 77 1011.9
20260508051537 44 341 0.0 1.7 0.00 0.00 0.00 76 1011.8
20260508051009 44 341 0.0 1.7 0.00 0.00 0.00 76 1011.8
20260508050507 45 341 0.0 0.0 0.00 0.00 0.00 75 1011.7
20260508050014 45 341 0.0 0.0 0.00 0.00 0.00 74 1011.8
20260508045506 45 341 0.0 0.0 0.00 0.00 0.00 73 1011.9
20260508045004 46 341 0.0 1.7 0.00 0.00 0.00 72 1012.0
20260508044519 46 341 0.0 1.7 0.00 0.00 0.00 71 1012.0
20260508044006 47 16 0.0 2.6 0.00 0.00 0.00 68 1011.8
20260508043509 47 21 0.9 2.6 0.00 0.00 0.00 67 1011.8
20260508043021 48 340 0.0 4.3 0.00 0.00 0.00 67 1011.8
20260508042510 48 29 0.9 4.3 0.00 0.00 0.00 63 1011.9
20260508042011 48 233 0.9 1.7 0.00 0.00 0.00 61 1012.0
20260508041526 48 309 0.0 1.7 0.00 0.00 0.00 61 1011.8
20260508041009 48 195 0.0 1.7 0.00 0.00 0.00 60 1011.6
20260508040512 48 183 0.0 0.0 0.00 0.00 0.00 60 1011.4
20260508040028 48 183 0.0 0.0 0.00 0.00 0.00 60 1011.5
20260508035503 49 183 0.0 0.0 0.00 0.00 0.00 59 1011.5
20260508035007 49 183 0.0 0.0 0.00 0.00 0.00 60 1011.4
20260508034521 49 183 0.0 0.0 0.00 0.00 0.00 57 1011.4
20260508034008 49 183 0.0 0.0 0.00 0.00 0.00 56 1011.5
20260508033506 50 183 0.0 0.0 0.00 0.00 0.00 56 1011.6
20260508033024 50 183 0.0 1.7 0.00 0.00 0.00 55 1011.5
20260508032509 50 183 0.0 1.7 0.00 0.00 0.00 55 1011.5
20260508032009 50 183 0.0 0.9 0.00 0.00 0.00 55 1011.6
20260508031523 50 183 0.0 0.9 0.00 0.00 0.00 56 1011.9
20260508031010 50 183 0.0 1.7 0.00 0.00 0.00 54 1011.9
20260508030509 50 183 0.0 1.7 0.00 0.00 0.00 54 1012.0
20260508030027 50 183 0.0 1.7 0.00 0.00 0.00 55 1012.0
20260508025510 50 123 0.0 1.7 0.00 0.00 0.00 56 1012.1
20260508025012 50 128 0.0 1.7 0.00 0.00 0.00 56 1012.1
20260508024519 49 155 0.0 1.7 0.00 0.00 0.00 56 1012.1
20260508024003 49 145 0.0 2.6 0.00 0.00 0.00 55 1012.1
20260508023507 49 145 0.0 2.6 0.00 0.00 0.00 55 1012.0
20260508023016 49 304 0.0 0.0 0.00 0.00 0.00 55 1011.9
20260508022510 49 304 0.0 0.0 0.00 0.00 0.00 54 1011.8
20260508022012 49 304 0.0 0.0 0.00 0.00 0.00 55 1011.8
20260508021530 49 304 0.0 1.7 0.00 0.00 0.00 54 1011.8
20260508021014 49 304 0.0 1.7 0.00 0.00 0.00 52 1011.9
20260508020511 50 313 0.0 1.7 0.00 0.00 0.00 52 1011.9
20260508020023 50 313 0.0 0.0 0.00 0.00 0.00 52 1011.8
20260508015507 50 313 0.0 0.0 0.00 0.00 0.00 52 1011.8
20260508015009 50 313 0.0 0.0 0.00 0.00 0.00 50 1011.7
20260508014527 50 313 0.0 0.0 0.00 0.00 0.00 50 1011.7
20260508014010 50 313 0.0 0.9 0.00 0.00 0.00 49 1011.7
20260508013506 50 313 0.0 1.7 0.00 0.00 0.00 49 1011.5
20260508013015 51 314 0.0 1.7 0.00 0.00 0.00 47 1011.5
20260508012508 51 314 0.0 1.7 0.00 0.00 0.00 46 1011.4
20260508012006 51 323 0.0 0.9 0.00 0.00 0.00 47 1011.4
20260508011527 51 323 0.0 1.7 0.00 0.00 0.00 45 1011.3
20260508011006 51 323 0.0 1.7 0.00 0.00 0.00 45 1011.3
20260508010506 51 323 0.0 1.7 0.00 0.00 0.00 46 1011.3
20260508010037 52 286 0.9 1.7 0.00 0.00 0.00 44 1011.3
20260508005508 52 48 0.0 3.5 0.00 0.00 0.00 45 1011.3
20260508005011 52 49 0.9 3.5 0.00 0.00 0.00 45 1011.4
20260508004527 51 19 0.9 2.6 0.00 0.00 0.00 46 1011.4
20260508004008 51 59 0.0 1.7 0.00 0.00 0.00 49 1011.3
20260508003514 51 34 0.0 1.7 0.00 0.00 0.00 49 1011.3
20260508003027 52 34 0.0 0.0 0.00 0.00 0.00 47 1011.1
20260508002509 52 34 0.0 0.0 0.00 0.00 0.00 44 1011.0
20260508002007 52 34 0.0 1.7 0.00 0.00 0.00 46 1011.0
20260508001515 52 34 0.0 1.7 0.00 0.00 0.00 46 1011.0
20260508001006 53 34 0.0 1.7 0.00 0.00 0.00 45 1011.0
20260508000508 53 34 0.0 1.7 0.00 0.00 0.00 42 1011.0
20260508000024 53 161 0.0 2.6 0.00 0.00 0.00 44 1011.0
20260507235511 53 161 0.0 2.6 0.00 0.00 0.00 42 1010.9
20260507235013 53 240 0.0 1.7 0.00 0.00 0.00 43 1010.9
20260507234525 54 240 0.0 1.7 0.00 0.00 0.00 42 1011.0
20260507234012 54 46 0.0 1.7 0.00 0.00 0.00 40 1011.0
20260507233510 54 180 0.0 1.7 0.00 0.00 0.00 41 1011.0
20260507233035 54 257 0.0 2.6 0.00 0.00 0.00 39 1011.0
20260507232508 54 211 0.0 3.5 0.00 0.00 0.00 39 1011.0
20260507232018 55 286 0.9 3.5 0.00 0.00 0.00 40 1011.0
20260507231517 55 210 0.0 7.0 0.00 0.00 0.00 37 1011.0
20260507231007 55 65 1.7 7.0 0.00 0.00 0.00 37 1011.0
20260507230507 55 360 1.7 4.3 0.00 0.00 0.00 37 1011.1
20260507230033 56 313 0.9 4.3 0.00 0.00 0.00 36 1011.1
20260507225508 56 331 1.7 5.2 0.00 0.00 0.00 36 1011.1
20260507225007 56 244 0.0 7.0 0.00 0.00 0.00 36 1011.0
20260507224531 56 209 0.9 7.0 0.00 0.00 0.00 39 1011.1
20260507224007 56 248 2.6 7.0 0.00 0.00 0.00 35 1011.1
20260507223507 56 19 0.9 1.7 0.00 0.00 0.00 36 1011.2
20260507223050 55 254 0.0 6.1 0.00 0.00 0.00 38 1011.2
20260507222511 55 349 0.9 6.1 0.00 0.00 0.00 37 1011.3
20260507222012 55 227 0.0 5.2 0.00 0.00 0.00 38 1011.3
20260507221528 55 227 0.9 6.1 0.00 0.00 0.00 38 1011.3
20260507221008 55 21 2.6 6.1 0.00 0.00 0.00 36 1011.3
20260507220507 55 342 0.9 4.3 0.00 0.00 0.00 36 1011.4
20260507220018 56 279 1.7 6.1 0.00 0.00 0.00 36 1011.4
20260507215512 56 229 1.7 6.1 0.00 0.00 0.00 35 1011.2
20260507215003 56 286 1.7 7.0 0.00 0.00 0.00 35 1011.4